Location: Ernsee
(50.8780°N, 12.0389°E)
Time: 21:29:12
(UTC+00:00)

FALCON 9 DEB - Pass Details

Date: 20 January 2020
Orbit: 429 x 444 km, 53.0° (Epoch: 18 February)

Event Time Altitude Azimuth Distance (km) Brightness Sun altitude
Exits shadow 04:34:28 47° 49° (NE) 601 4.0 -23.1°
Drops below altitude 10° 04:37:14 10° 80° (E) 1,566 7.0 -22.6°
Sets 04:39:23 0° 85° (E) 2,438 8.4 -22.3°
